Weather in Talalikhino

Russia / Saratov Oblast     52°06′39″N   47°39′20″E
temp.,
°C
wind,
m/s
gust,
m/s
humid.,
%
clouds,
%
prec.,
mm/h
press.,
hPa
HPBL,
m
14 may, fri
fri1401:00+16ese23655 0.0 101928
04:00+15e226694 0.0 101923
07:00+17ese256471 0.0 1020155
10:00+24sse574643 0.0 1020635
13:00+28s683395 0.0 10201228
16:00+29s68311 0.0 10191556
19:00+26sse37455 0.0 1019130
22:00+20se41154100 0.0 1019185
15 may, sat
sat1501:00+19sse394993 0.0 1019143
04:00+17sse225012 0.0 102016
07:00+19se26515 0.0 1020150
10:00+25sse58315 0.0 1020549
13:00+30s710225 0.0 10191555
16:00+31sse710235 0.0 10182477
19:00+26se49395 0.0 1018171
22:00+21se474522 0.0 101892
16 may, sun
sun1601:00+19sse34527 0.0 101860
04:00+17sse12525 0.0 101814
07:00+20sse12495 0.0 101880
10:00+26s47355 0.0 1018632
13:00+30ssw6102446 0.0 10172083
16:00+31ssw592366 0.0 10163498
19:00+28sw1239100 0.0 101511
22:00+24se334368 0.0 101649
17 may, mon
mon1701:00+21s225188 0.0 101614
04:00+21ese1149100 0.0 101711
07:00+21ese2355100 0.0 101795
10:00+27sse243496 0.0 1017520
13:00+31sse592186 0.0 10173248
16:00+31sse661999 0.0 10163381
19:00+27sse3438100 0.0 101661
22:00+22se3339100 0.0 101637
18 may, tue
tue1801:00+20ese3340100 0.0 101630
04:00+18e2347100 0.0 101625
07:00+19ene2352100 0.0 101687
10:00+25sse353598 0.0 1016501
13:00+31sse462398 0.0 10151228
16:00+32sse671724 0.0 10143650
19:00+27ese4834100 0.0 1014124
22:00+22se463589 0.0 101481